Overview Statistics Trail Chart Weather Telemetry Raw packets
 

This is the latest recevied weather packets stored in our database for station/object KH6DH-13. If no packets are shown the sender has not sent any weather packets the latest 10 day(s).

<< 27 28 29 30 31 32 33 >>
Time Temp. Humidity Pressure Rain* Wind** Luminosity Snow
1788267525 25.56° C - - 0 mm 1.34 m/s, 69° - -
1788266924 25.56° C - - 0 mm 1.34 m/s, 65° - -
1788266323 25° C - - 0 mm 2.24 m/s, 118° - -
1788265722 25° C - - 0 mm 1.79 m/s, 131° - -
1788265121 25° C - - 0 mm 1.34 m/s, 86° - -
1788264520 25.56° C - - 0 mm 2.24 m/s, 359° - -
1788263919 25.56° C - - 0 mm 1.79 m/s, 10° - -
1788263318 25.56° C - - 0 mm 1.79 m/s, 4° - -
1788262717 25° C - - 0 mm 1.79 m/s, 340° - -
1788262116 25.56° C - - 0 mm 1.34 m/s, 73° - -
1788261515 25° C - - 0 mm 2.24 m/s, 83° - -
1788260914 25.56° C - - 0 mm 2.24 m/s, 56° - -
1788260313 25.56° C - - 0 mm 0.45 m/s, 17° - -
1788259712 25° C - - 0 mm 0.89 m/s, 44° - -
1788259111 25° C - - 0 mm 1.79 m/s, 336° - -
1788258510 25.56° C - - 0 mm 1.34 m/s, 56° - -
1788257909 25.56° C - - 0 mm 2.24 m/s, 101° - -
1788257308 25.56° C - - 0 mm 1.34 m/s, 31° - -
1788256707 25° C - - 0 mm 0.89 m/s, 66° - -
1788256106 25° C - - 0 mm 1.79 m/s, 42° - -
1788255505 26.11° C - - 0 mm 1.79 m/s, 17° - -
1788254904 25.56° C - - 0 mm 0.89 m/s, 121° - -
1788254303 25.56° C - - 0 mm 2.24 m/s, 96° - -
1788253702 26.11° C - - 0 mm 1.34 m/s, 170° - -
1788253100 25.56° C - - 0 mm 1.79 m/s, 316° - -

* Rain latest hour (hover to see other rain measurements)
** Current wind speed in m/s (hover to see current wind gust speed)